Thunderstorms From: 25-05-2018 23:09 Until: 26-05-2018 15:00 warning for: Thunderstorms Level: Yellow info button

Although rather usual in this region, locally or potentially dangerous phenomena are expected. (such as local winds, summer thunderstorms, rising streams or high waves) Be aware and pay attention to the latest weather updates, especially if you carry out activities exposed to weather or close to a stream or shoreline. 


Meteo18 Weather Cam more information Meteo18 Weather Cam


warning for Thunderstorms more information blitzortung!


Rain radar more information rain snow radar


Visit our other weather sites:

Template documentation
and downloads

And another site



Weather Underground History page Text

Daily Summary for December 1, 2017 Units:  Metric    English   Both
« Previous Day
Next Day »
Daily Weekly Monthly Yearly Custom
  High: Low: Average:
Temperature: -17.8 °C -17.9 °C -17.4 °C
Dew Point: -17.8 °C -18.3 °C -17.9 °C
Humidity: Humidity % 90 % 93 %
Wind Speed: 0 km/h 0 km/h 8.5 km/h
Wind Gust: 0 km/h - -
Wind:- - WSW
Pressure: 0 hPa 34212.1 hPa -
Precipitation: 76.2 mm    
Historical Graphs
 
 
Tabular Data for December 1, 2017
Time Temperature Dew Point Pressure Wind Wind Speed Wind Gust Humidity Rainfall Rate (Hourly)
-17.8 °C -17.8 °C 0 hPa Calm     Humidity % 0 mm
00:02 -17.8 °C -18.2 °C 34212.1 hPa WSW 12.9 km/h 23.3 km/h 94 % 0 mm
00:17 -17.7 °C -18.3 °C 34222.3 hPa WNW 5.1 km/h 20.8 km/h 93 % 0 mm
00:22 -17.7 °C -18.3 °C 34222.3 hPa Calm   15.6 km/h 93 % 0 mm
00:32 -17.7 °C -18.3 °C 34222.3 hPa WNW 5.1 km/h 12.9 km/h 93 % 0 mm
00:42 -17.7 °C -18.3 °C 34222.3 hPa West 5.1 km/h 10.3 km/h 93 % 0 mm
00:57 -17.7 °C -18.3 °C 34222.3 hPa West 2.6 km/h 10.3 km/h 93 % 0 mm
01:02 -17.7 °C -18.2 °C 34222.3 hPa WNW 5.1 km/h 10.3 km/h 94 % 0 mm
01:07 -17.7 °C -18.2 °C 34212.1 hPa West 2.6 km/h 7.7 km/h 94 % 0 mm
01:12 -17.7 °C -18.2 °C 34212.1 hPa Calm   7.7 km/h 94 % 0 mm
01:17 -17.7 °C -18.2 °C 34212.1 hPa NW 2.6 km/h 5.1 km/h 94 % 0 mm
01:27 -17.8 °C -18.2 °C 34212.1 hPa Calm   7.7 km/h 95 % 0 mm
01:32 -17.8 °C -18.2 °C 34212.1 hPa WNW 2.6 km/h 7.7 km/h 95 % 0 mm
01:37 -17.8 °C -18.2 °C 34212.1 hPa WNW 2.6 km/h 7.7 km/h 95 % 0 mm
01:42 -17.8 °C -18.2 °C 34212.1 hPa West 7.7 km/h 7.7 km/h 95 % 0 mm
01:52 -17.8 °C -18.2 °C 34212.1 hPa WNW 2.6 km/h 10.3 km/h 95 % 0 mm
01:57 -17.7 °C -18.1 °C 34212.1 hPa NW 5.1 km/h 12.9 km/h 95 % 0 mm
02:07 -17.7 °C -18.1 °C 34212.1 hPa NNW 5.1 km/h 12.9 km/h 95 % 0 mm
02:12 -17.7 °C -18.1 °C 34222.3 hPa NNW 2.6 km/h 12.9 km/h 95 % 0 mm
02:17 -17.7 °C -18.1 °C 34222.3 hPa NW 2.6 km/h 12.9 km/h 95 % 0 mm
02:27 -17.7 °C -18.1 °C 34222.3 hPa WSW 5.1 km/h 15.6 km/h 95 % 0 mm
02:32 -17.7 °C -18.1 °C 34222.3 hPa Calm   15.6 km/h 95 % 0 mm
02:42 -17.7 °C -18.1 °C 34222.3 hPa Calm   10.3 km/h 95 % 0 mm
02:47 -17.7 °C -18.1 °C 34235.8 hPa WNW 2.6 km/h 7.7 km/h 95 % 0 mm
02:52 -17.7 °C -18.1 °C 34235.8 hPa NW 2.6 km/h 10.3 km/h 95 % 0 mm
02:57 -17.7 °C -18.1 °C 34235.8 hPa NW 5.1 km/h 10.3 km/h 95 % 0 mm
03:02 -17.7 °C -18.1 °C 34235.8 hPa NW 2.6 km/h 10.3 km/h 95 % 0 mm
03:17 -17.7 °C -18.1 °C 34235.8 hPa NNW 12.9 km/h 12.9 km/h 95 % 0 mm
03:22 -17.7 °C -18.1 °C 34235.8 hPa West 2.6 km/h 12.9 km/h 95 % 0 mm
03:47 -17.7 °C -18.2 °C 34235.8 hPa NNW 2.6 km/h 15.6 km/h 94 % 0 mm
03:52 -17.7 °C -18.2 °C 34235.8 hPa WNW 10.3 km/h 10.3 km/h 94 % 0 mm
04:22 -17.7 °C -18.2 °C 34235.8 hPa Calm   7.7 km/h 94 % 0 mm
04:32 -17.7 °C -18.2 °C 34246 hPa Calm   12.9 km/h 94 % 0 mm
04:42 -17.8 °C -18.2 °C 34246 hPa West 2.6 km/h 12.9 km/h 95 % 0 mm
04:52 -17.8 °C -18.2 °C 34246 hPa Calm   12.9 km/h 95 % 0 mm
05:02 -17.8 °C -18.2 °C 34235.8 hPa WNW 2.6 km/h 12.9 km/h 95 % 0 mm
05:12 -17.8 °C -18.2 °C 34246 hPa WNW 2.6 km/h 10.3 km/h 95 % 0 mm
05:17 -17.8 °C -18.2 °C 34246 hPa Calm   10.3 km/h 95 % 0 mm
05:22 -17.8 °C -18.2 °C 34246 hPa Calm   10.3 km/h 95 % 0 mm
05:27 -17.8 °C -18.2 °C 34246 hPa Calm   7.7 km/h 94 % 0 mm
05:32 -17.8 °C -18.2 °C 34246 hPa West 2.6 km/h 7.7 km/h 94 % 0 mm
05:42 -17.8 °C -18.3 °C 34246 hPa WNW 7.7 km/h 7.7 km/h 94 % 0 mm
05:47 -17.8 °C -18.3 °C 34246 hPa Calm   10.3 km/h 94 % 0 mm
05:52 -17.8 °C -18.3 °C 34246 hPa NW 5.1 km/h 10.3 km/h 94 % 0 mm
05:57 -17.8 °C -18.3 °C 34246 hPa NW 2.6 km/h 10.3 km/h 94 % 0 mm
06:02 -17.8 °C -18.3 °C 34246 hPa WNW 2.6 km/h 10.3 km/h 94 % 0 mm
06:12 -17.8 °C -18.3 °C 34246 hPa WNW 2.6 km/h 12.9 km/h 94 % 0 mm
06:17 -17.8 °C -18.3 °C 34246 hPa West 2.6 km/h 10.3 km/h 94 % 0 mm
06:22 -17.8 °C -18.3 °C 34256.2 hPa NNW 5.1 km/h 10.3 km/h 94 % 0 mm
06:27 -17.8 °C -18.3 °C 34256.2 hPa WNW 7.7 km/h 10.3 km/h 94 % 0 mm
06:32 -17.8 °C -18.3 °C 34256.2 hPa NW 5.1 km/h 10.3 km/h 94 % 0 mm
06:37 -17.9 °C -18.3 °C 34256.2 hPa Calm   10.3 km/h 94 % 0 mm
06:42 -17.9 °C -18.3 °C 34256.2 hPa WNW 5.1 km/h 10.3 km/h 94 % 0 mm
06:47 -17.9 °C -18.3 °C 34256.2 hPa Calm   10.3 km/h 94 % 0 mm
06:57 -17.9 °C -18.3 °C 34269.7 hPa West 7.7 km/h 12.9 km/h 94 % 0 mm
07:02 -17.9 °C -18.3 °C 34269.7 hPa WNW 7.7 km/h 12.9 km/h 95 % 0 mm
07:07 -17.9 °C -18.3 °C 34269.7 hPa WNW 7.7 km/h 18.2 km/h 95 % 0 mm
07:12 -17.9 °C -18.3 °C 34269.7 hPa West 5.1 km/h 18.2 km/h 95 % 0 mm
07:22 -17.9 °C -18.3 °C 34269.7 hPa WNW 10.3 km/h 18.2 km/h 95 % 0 mm
07:27 -17.9 °C -18.3 °C 34269.7 hPa WNW 5.1 km/h 15.6 km/h 95 % 0 mm
07:32 -17.9 °C -18.3 °C 34269.7 hPa WNW 10.3 km/h 15.6 km/h 95 % 0 mm
07:37 -17.9 °C -18.3 °C 34269.7 hPa West 2.6 km/h 15.6 km/h 95 % 0 mm
07:42 -17.9 °C -18.3 °C 34269.7 hPa NW 15.6 km/h 15.6 km/h 95 % 0 mm
07:52 -17.9 °C -18.3 °C 34269.7 hPa WNW 10.3 km/h 15.6 km/h 95 % 0 mm
08:07 -17.8 °C -18.2 °C 34269.7 hPa NW 10.3 km/h 20.8 km/h 95 % 0 mm
08:12 -17.8 °C -18.2 °C 34269.7 hPa WNW 10.3 km/h 20.8 km/h 95 % 0 mm
08:17 -17.8 °C -18.2 °C 34279.9 hPa NW 10.3 km/h 28.5 km/h 95 % 0 mm
08:22 -17.8 °C -18.2 °C 34279.9 hPa NNW 12.9 km/h 28.5 km/h 95 % 0 mm
08:27 -17.8 °C -18.2 °C 34279.9 hPa WNW 15.6 km/h 25.9 km/h 95 % 0 mm
08:32 -17.8 °C -18.2 °C 34279.9 hPa WNW 7.7 km/h 25.9 km/h 95 % 0 mm
08:37 -17.8 °C -18.2 °C 34293.4 hPa WNW 2.6 km/h 28.5 km/h 95 % 0 mm
08:42 -17.8 °C -18.2 °C 34293.4 hPa WNW 5.1 km/h 28.5 km/h 95 % 0 mm
08:47 -17.8 °C -18.2 °C 34293.4 hPa West 2.6 km/h 20.8 km/h 94 % 0 mm
08:57 -17.8 °C -18.2 °C 34293.4 hPa WNW 12.9 km/h 33.6 km/h 94 % 0 mm
09:07 -17.7 °C -18.2 °C 34293.4 hPa WNW 7.7 km/h 33.6 km/h 94 % 0 mm
09:12 -17.7 °C -18.2 °C 34293.4 hPa WNW 2.6 km/h 33.6 km/h 94 % 0 mm
09:17 -17.7 °C -18.2 °C 34303.6 hPa WNW 5.1 km/h 23.3 km/h 94 % 0 mm
09:22 -17.7 °C -18.2 °C 34303.6 hPa West 5.1 km/h 23.3 km/h 94 % 0 mm
09:32 -17.7 °C -18.2 °C 34303.6 hPa WNW 10.3 km/h 25.9 km/h 94 % 0 mm
09:37 -17.7 °C -18.1 °C 34303.6 hPa West 12.9 km/h 25.9 km/h 95 % 0 mm
09:57 -17.7 °C -18.1 °C 34313.7 hPa WNW 7.7 km/h 20.8 km/h 95 % 0 mm
10:02 -17.7 °C -18.1 °C 34313.7 hPa WNW 5.1 km/h 20.8 km/h 95 % 0 mm
10:07 -17.7 °C -18.1 °C 34313.7 hPa WNW 5.1 km/h 20.8 km/h 95 % 0 mm
10:12 -17.6 °C -18 °C 34313.7 hPa WNW 5.1 km/h 20.8 km/h 95 % 0 mm
10:17 -17.6 °C -18 °C 34327.3 hPa NW 5.1 km/h 15.6 km/h 95 % 0 mm
10:22 -17.6 °C -17.9 °C 34327.3 hPa West 5.1 km/h 15.6 km/h 95 % 0 mm
10:32 -17.6 °C -17.9 °C 34327.3 hPa NNW 10.3 km/h 12.9 km/h 95 % 0 mm
10:37 -17.6 °C -17.9 °C 34327.3 hPa WNW 5.1 km/h 15.6 km/h 95 % 0 mm
10:42 -17.6 °C -17.9 °C 34337.4 hPa WNW 7.7 km/h 15.6 km/h 95 % 0 mm
10:47 -17.6 °C -17.9 °C 34337.4 hPa West 2.6 km/h 15.6 km/h 95 % 0 mm
10:52 -17.6 °C -17.9 °C 34337.4 hPa WNW 5.1 km/h 15.6 km/h 95 % 0 mm
10:57 -17.6 °C -17.9 °C 34337.4 hPa Calm   12.9 km/h 95 % 0 mm
11:02 -17.5 °C -17.9 °C 34337.4 hPa WNW 2.6 km/h 12.9 km/h 95 % 0 mm
11:12 -17.4 °C -17.8 °C 34347.6 hPa WNW 5.1 km/h 10.3 km/h 95 % 0 mm
11:17 -17.4 °C -17.8 °C 34347.6 hPa WNW 7.7 km/h 10.3 km/h 95 % 0 mm
11:22 -17.4 °C -17.8 °C 34347.6 hPa WNW 7.7 km/h 10.3 km/h 95 % 0 mm
11:27 -17.4 °C -17.8 °C 34347.6 hPa WNW 7.7 km/h 10.3 km/h 95 % 0 mm
11:32 -17.4 °C -17.8 °C 34347.6 hPa NW 10.3 km/h 10.3 km/h 95 % 0 mm
11:42 -17.4 °C -17.8 °C 34347.6 hPa West 2.6 km/h 12.9 km/h 95 % 0 mm
11:47 -17.3 °C -17.7 °C 34347.6 hPa WNW 5.1 km/h 12.9 km/h 95 % 0 mm
11:57 -17.3 °C -17.7 °C 34347.6 hPa WNW 7.7 km/h 10.3 km/h 95 % 0 mm
12:02 -17.3 °C -17.7 °C 34347.6 hPa Calm   10.3 km/h 95 % 0 mm
12:12 -17.2 °C -17.7 °C 34347.6 hPa WNW 10.3 km/h 10.3 km/h 94 % 0 mm
12:17 -17.2 °C -17.6 °C 34347.6 hPa WNW 7.7 km/h 10.3 km/h 95 % 0 mm
12:22 -17.2 °C -17.6 °C 34347.6 hPa WNW 10.3 km/h 12.9 km/h 95 % 0 mm
12:32 -17.2 °C -17.6 °C 34361.1 hPa NW 5.1 km/h 15.6 km/h 95 % 7.62 mm
12:37 -17.2 °C -17.6 °C 34361.1 hPa WNW 7.7 km/h 15.6 km/h 95 % 7.62 mm
12:42 -17.2 °C -17.6 °C 34361.1 hPa NW 5.1 km/h 20.8 km/h 95 % 7.62 mm
12:47 -17.1 °C -17.5 °C 34361.1 hPa NNW 12.9 km/h 20.8 km/h 95 % 7.62 mm
12:52 -17.1 °C -17.5 °C 34361.1 hPa North 7.7 km/h 15.6 km/h 95 % 12.7 mm
13:02 -17.1 °C -17.6 °C 34361.1 hPa North 15.6 km/h 25.9 km/h 94 % 12.7 mm
13:07 -17.1 °C -17.6 °C 34361.1 hPa NNW 12.9 km/h 25.9 km/h 94 % 12.7 mm
13:12 -17.1 °C -17.6 °C 34361.1 hPa NNW 7.7 km/h 20.8 km/h 94 % 20.32 mm
13:22 -17.1 °C -17.6 °C 34361.1 hPa NNW 10.3 km/h 28.5 km/h 94 % 25.4 mm
13:27 -17.1 °C -17.6 °C 34361.1 hPa NW 12.9 km/h 28.5 km/h 94 % 20.32 mm
13:32 -17.1 °C -17.6 °C 34361.1 hPa NNW 18.2 km/h 28.5 km/h 94 % 25.4 mm
13:37 -17.1 °C -17.6 °C 34361.1 hPa NW 15.6 km/h 28.5 km/h 94 % 25.4 mm
13:42 -17.1 °C -17.6 °C 34361.1 hPa North 15.6 km/h 28.5 km/h 94 % 25.4 mm
13:52 -17.1 °C -17.6 °C 34361.1 hPa NE 15.6 km/h 25.9 km/h 94 % 33.02 mm
14:12 -17 °C -17.5 °C 34371.3 hPa NNW 10.3 km/h 28.5 km/h 94 % 25.4 mm
14:17 -16.9 °C -17.4 °C 34371.3 hPa NW 12.9 km/h 28.5 km/h 94 % 33.02 mm
14:32 -16.9 °C -17.4 °C 34371.3 hPa NNW 15.6 km/h 28.5 km/h 94 % 25.4 mm
14:37 -16.9 °C -17.4 °C 34371.3 hPa North 10.3 km/h 28.5 km/h 94 % 20.32 mm
14:42 -16.9 °C -17.4 °C 34371.3 hPa NNE 15.6 km/h 28.5 km/h 93 % 20.32 mm
15:12 -16.9 °C -17.4 °C 34384.8 hPa NNW 15.6 km/h 23.3 km/h 93 % 12.7 mm
15:22 -16.9 °C -17.4 °C 34395 hPa West 5.1 km/h 23.3 km/h 93 % 12.7 mm
15:27 -16.9 °C -17.4 °C 34395 hPa North 20.8 km/h 23.3 km/h 93 % 12.7 mm
15:32 -16.9 °C -17.4 °C 34395 hPa NNW 15.6 km/h 23.3 km/h 93 % 12.7 mm
15:42 -16.9 °C -17.4 °C 34405.1 hPa NNE 12.9 km/h 20.8 km/h 93 % 12.7 mm
15:52 -16.9 °C -17.4 °C 34405.1 hPa NNW 7.7 km/h 18.2 km/h 93 % 12.7 mm
15:57 -16.9 °C -17.4 °C 34405.1 hPa NNW 7.7 km/h 18.2 km/h 93 % 12.7 mm
16:02 -16.9 °C -17.4 °C 34405.1 hPa NNW 7.7 km/h 18.2 km/h 93 % 12.7 mm
16:07 -16.8 °C -17.4 °C 34405.1 hPa NNW 10.3 km/h 15.6 km/h 93 % 12.7 mm
16:12 -16.9 °C -17.4 °C 34418.7 hPa NNW 7.7 km/h 15.6 km/h 93 % 7.62 mm
16:22 -16.9 °C -17.4 °C 34418.7 hPa NNE 2.6 km/h 18.2 km/h 93 % 7.62 mm
16:32 -16.9 °C -17.5 °C 34418.7 hPa NW 10.3 km/h 18.2 km/h 93 % 7.62 mm
16:42 -16.9 °C -17.6 °C 34428.8 hPa NE 12.9 km/h 23.3 km/h 92 % 7.62 mm
16:52 -17.1 °C -17.7 °C 34428.8 hPa North 15.6 km/h 28.5 km/h 92 % 7.62 mm
17:17 -17.2 °C -17.9 °C 34442.4 hPa North 5.1 km/h 28.5 km/h 91 % 7.62 mm
17:22 -17.2 °C -17.9 °C 34442.4 hPa NNE 10.3 km/h 25.9 km/h 91 % 7.62 mm
17:27 -17.3 °C -17.9 °C 34452.6 hPa North 5.1 km/h 18.2 km/h 92 % 7.62 mm
17:47 -17.3 °C -17.9 °C 34452.6 hPa NNW 2.6 km/h 15.6 km/h 93 % 0 mm
17:52 -17.3 °C -17.8 °C 34452.6 hPa North 7.7 km/h 12.9 km/h 93 % 0 mm
18:02 -17.2 °C -17.7 °C 34462.7 hPa NNE 5.1 km/h 18.2 km/h 93 % 0 mm
18:07 -17.2 °C -17.7 °C 34462.7 hPa NNW 12.9 km/h 18.2 km/h 93 % 0 mm
18:12 -17.1 °C -17.7 °C 34462.7 hPa WNW 18.2 km/h 20.8 km/h 93 % 0 mm
18:22 -17.1 °C -17.6 °C 34462.7 hPa North 10.3 km/h 25.9 km/h 93 % 0 mm
18:42 -17.1 °C -17.7 °C 34476.3 hPa NW 12.9 km/h 20.8 km/h 92 % 0 mm
18:47 -17.1 °C -17.8 °C 34476.3 hPa North 10.3 km/h 20.8 km/h 92 % 0 mm
18:52 -17.2 °C -17.8 °C 34476.3 hPa North 7.7 km/h 20.8 km/h 92 % 0 mm
18:57 -17.2 °C -17.8 °C 34476.3 hPa NNW 12.9 km/h 23.3 km/h 92 % 0 mm
19:22 -17.2 °C -17.7 °C 34486.4 hPa North 15.6 km/h 31.1 km/h 93 % 0 mm
19:27 -17.2 °C -17.7 °C 34486.4 hPa NNE 10.3 km/h 31.1 km/h 93 % 0 mm
19:32 -17.1 °C -17.7 °C 34486.4 hPa NNW 12.9 km/h 31.1 km/h 93 % 0 mm
19:52 -17.1 °C -17.7 °C 34496.6 hPa NNE 23.3 km/h 25.9 km/h 93 % 0 mm
20:02 -17 °C -17.7 °C 34496.6 hPa NE 20.8 km/h 38.8 km/h 92 % 0 mm
20:07 -17 °C -17.7 °C 34496.6 hPa NNE 15.6 km/h 38.8 km/h 91 % 0 mm
20:17 -16.9 °C -17.7 °C 34496.6 hPa NW 18.2 km/h 49.2 km/h 91 % 0 mm
20:22 -16.9 °C -17.7 °C 34496.6 hPa North 23.3 km/h 49.2 km/h 91 % 0 mm
20:27 -16.9 °C -17.7 °C 34510.1 hPa NNW 23.3 km/h 49.2 km/h 91 % 0 mm
20:32 -16.9 °C -17.8 °C 34510.1 hPa NW 15.6 km/h 46.7 km/h 90 % 0 mm
20:37 -16.9 °C -17.8 °C 34510.1 hPa North 10.3 km/h 44.1 km/h 90 % 0 mm
20:42 -17 °C -17.7 °C 34510.1 hPa North 25.9 km/h 44.1 km/h 91 % 0 mm
20:52 -17.2 °C -17.8 °C 34520.3 hPa NE 18.2 km/h 38.8 km/h 92 % 0 mm
20:57 -17.3 °C -17.8 °C 34520.3 hPa NE 15.6 km/h 38.8 km/h 93 % 0 mm
21:02 -17.3 °C -17.8 °C 34520.3 hPa North 10.3 km/h 41.4 km/h 93 % 0 mm
21:07 -17.2 °C -17.8 °C 34533.8 hPa NNE 7.7 km/h 41.4 km/h 93 % 0 mm
21:17 -17.2 °C -17.8 °C 34533.8 hPa North 10.3 km/h 23.3 km/h 93 % 0 mm
21:22 -17.3 °C -17.8 °C 34533.8 hPa North 23.3 km/h 25.9 km/h 93 % 0 mm
21:32 -17.3 °C -17.8 °C 34544 hPa North 18.2 km/h 25.9 km/h 93 % 0 mm
21:37 -17.3 °C -17.8 °C 34544 hPa NNW 20.8 km/h 33.6 km/h 93 % 0 mm
21:42 -17.3 °C -17.8 °C 34544 hPa NNW 10.3 km/h 36.2 km/h 93 % 0 mm
21:47 -17.2 °C -17.9 °C 34544 hPa NE 18.2 km/h 36.2 km/h 92 % 0 mm
21:52 -17.3 °C -17.9 °C 34544 hPa NNW 15.6 km/h 36.2 km/h 92 % 0 mm
22:02 -17.3 °C -17.9 °C 34544 hPa NNW 18.2 km/h 31.1 km/h 92 % 0 mm
22:07 -17.3 °C -17.9 °C 34544 hPa North 10.3 km/h 31.1 km/h 92 % 0 mm
22:17 -17.3 °C -18 °C 34554.1 hPa NNE 10.3 km/h 31.1 km/h 92 % 0 mm
22:22 -17.3 °C -17.9 °C 34554.1 hPa NW 7.7 km/h 31.1 km/h 92 % 0 mm
22:32 -17.3 °C -17.9 °C 34554.1 hPa NNE 12.9 km/h 25.9 km/h 92 % 0 mm
22:52 -17.3 °C -18 °C 34554.1 hPa NNW 23.3 km/h 31.1 km/h 92 % 0 mm
23:07 -17.3 °C -18 °C 34554.1 hPa North 25.9 km/h 38.8 km/h 92 % 0 mm
23:32 -17.4 °C -18.1 °C 34554.1 hPa NNE 10.3 km/h 28.5 km/h 92 % 0 mm
23:42 -17.4 °C -18.1 °C 34567.7 hPa NNE 5.1 km/h 28.5 km/h 92 % 0 mm
23:52 -17.5 °C -18.1 °C 34567.7 hPa NNE 18.2 km/h 31.1 km/h 92 % 0 mm
23:57 -17.6 °C -18.2 °C 34567.7 hPa NE 12.9 km/h 31.1 km/h 92 % 0 mm
Meteo18
Compliments of Weather Underground - 4 mb

Script developed by  Jim McMurry - jmcmurry@mwt.net Adapted for the template by  Wim van der Kuil - Leuven-Template.eu

You find our weather info also at:

European Weather Network

Weather Underground

Equipment we use:

Weather-station
Davis Vue

Weather-program
Meteobridge

Weather-server
Raspberry PI 2 B+

Provider
1 and 1

Davis Vue

Meteobridge

Raspberry PI 2 B+

1 and 1